Regional Weather Roundup
Issued by NWS

Home | Current Version | Previous Version | Graphics & Text | Print | Product List | Glossary On
Versions: 1 2 3 4 5 6 7 8 9 10 11 12 13 14 15 16 17 18 19 20 21 22 23 24 25 26 27 28 29 30 31 32 33 34 35 36 37 38 39 40 41 42 43 44 45 46 47 48 49 50
384
ASUS43 KMKX 271521
RWRWI

WISCONSIN REGIONAL WEATHER ROUNDUP
NATIONAL WEATHER SERVICE MILWAUKEE/SULLIVAN WI
1000 AM CDT FRI MAY 27 2016

NOTE: "FAIR" INDICATES FEW OR NO CLOUDS BELOW 12,000 FEET WITH NO
SIGNIFICANT WEATHER AND/OR OBSTRUCTIONS TO VISIBILITY.

WIZ001-002-006>008-014>016-023>028-271600-
NORTHWEST WISCONSIN

CITY           SKY/WX    TMP DP  RH WIND       PRES   REMARKS
SUPERIOR ARPT  CLOUDY    47  46  99 NE8       29.89F
ASHLAND        CLOUDY    53  53 100 CALM      29.91R
HAYWARD        CLOUDY    64  55  72 CALM      29.89S
SIREN          HVY RAIN  63  59  87 SE9       29.87S
CUMBERLAND     CLOUDY    61  57  88 N3        29.86F
RICE LAKE      CLOUDY    64  58  81 CALM      29.87F
CHETEK         CLOUDY    64  59  85 CALM      29.86F
LADYSMITH      CLOUDY    63  58  84 NE3       29.89F
EAU CLAIRE     CLOUDY    66  61  84 N7        29.82F
MENOMONIE      CLOUDY    64  64  97 CALM      29.83F
NEW RICHMOND   RAIN      63  60  91 SE6       29.86F
OSCEOLA        LGT RAIN  64  60  86 SE8       29.88R
$$

WIZ003>005-009-010-017-018-271600-
NORTH CENTRAL WISCONSIN

CITY           SKY/WX    TMP DP  RH WIND       PRES   REMARKS
MANITOWISH WTR NOT AVBL
ARBOR VITAE    CLOUDY    69  58  67 E3        29.91F
WOODRUFF       CLOUDY    69  58  67 E3        29.91F
RHINELANDER    CLOUDY    65  59  81 NE3       29.92S
EAGLE RIVER      N/A     69  56  64 CALM      29.92S
LAND O LAKES   CLOUDY    70  57  63 CALM      29.94R
PHILLIPS       CLOUDY    64  60  88 N3        29.90F
TOMAHAWK       CLOUDY    63  59  88 CALM      29.90F
MEDFORD        CLOUDY    64  59  83 NE5       29.86F
MERRILL        CLOUDY    63  62  96 NE3       29.88F
$$

WIZ029-030-035-036-043>047-271600-
CENTRAL WISCONSIN

CITY           SKY/WX    TMP DP  RH WIND       PRES   REMARKS
WAUSAU         CLOUDY    68  59  73 E3        29.85F
MOSINEE        CLOUDY    64  63  94 VRB6      29.88F
MARSHFIELD     CLOUDY    66  59  78 E5        29.85F
STEVENS POINT  LGT RAIN  65  61  85 CALM      29.90R
WAUPACA        LGT RAIN  72  64  76 SW3       29.90R
WAUTOMA        LGT RAIN  65  63  93 W3        29.89R
WISC RAPIDS    LGT RAIN  66  60  81 E5        29.88R
CAMP DOUGLAS   PTSUNNY   68  68 100 SE10      29.85R
$$

WIZ011>013-019>022-031-037>040-048>050-271600-
NORTHEAST WISCONSIN

CITY           SKY/WX    TMP DP  RH WIND       PRES   REMARKS
ANTIGO         CLOUDY    69  58  67 E8        29.90F
SHAWANO        CLOUDY    71  63  74 NE3       29.88F
OCONTO         CLOUDY    65  65  99 E5        29.87F
STURGEON BAY   NOT AVBL
GREEN BAY      CLOUDY    75  65  70 NE9       29.86F
MANITOWOC      CLOUDY    59  55  87 SE6       29.89F
APPLETON       CLOUDY    73  57  56 E7        29.85S
CLINTONVILLE   CLOUDY    72  61  68 NE5       29.86F
OSHKOSH        CLOUDY    73  62  68 E6        29.86R
$$

WIZ032>034-041-042-053>061-271600-
SOUTHWEST WISCONSIN

CITY           SKY/WX    TMP DP  RH WIND       PRES   REMARKS
LA CROSSE      CLOUDY    68  63  84 NW6       29.81F
SPARTA         CLOUDY    67  63  86 E3        29.83F
VIROQUA        CLOUDY    69  63  83 SE14      29.83S
BOSCOBEL       CLOUDY    73  63  70 S7        29.83F
PRAIRIE DU CHI MOSUNNY   71  63  74 SE12G18   29.81F
PLATTEVILLE    CLOUDY    67  64  87 S9        29.86S
$$

WIZ056-057-062-063-064-067-068-271600-
SOUTH CENTRAL WISCONSIN

CITY           SKY/WX    TMP DP  RH WIND       PRES   REMARKS
REEDSBURG      PTSUNNY   71  64  80 E6        29.86S
BARABOO/DELLS  CLOUDY    70  62  75 E7        29.87S
LONE ROCK      CLOUDY    72  62  71 SE8       29.86R
MINERAL POINT  CLOUDY    70  63  78 S12G17    29.87R
MADISON        PTSUNNY   74  60  61 S13       29.86R
MIDDLETON      PTSUNNY   75  59  57 SW10      29.87S
WATERTOWN      CLOUDY    73  68  84 SE5       29.86R
MONROE         CLOUDY    72  61  68 S10       29.88R
JANESVILLE     CLOUDY    73  64  73 S5        29.87
$$

WIZ051-052-058>065-066-070>072-271600-
SOUTHEAST WISCONSIN

CITY           SKY/WX    TMP DP  RH WIND       PRES   REMARKS
MILWAUKEE      CLOUDY    75  68  78 S7        29.88S
WAUKESHA       PTSUNNY   70  66  88 S5        29.90R FOG
MILWAUKEE/TIMM MOSUNNY   73  64  73 SE5       29.88S
RACINE         CLOUDY    72  64  76 SE7       29.90S
BURLINGTON     CLOUDY    72  67  83 S7        29.89R
KENOSHA        LGT RAIN  74  68  81 SW9       29.89S
FOND DU LAC    CLOUDY    74  64  71 S3        29.86F
SHEBOYGAN      CLOUDY    67  58  72 NE3       29.88F
WEST BEND      CLOUDY    70  64  83 S5        29.88S
JUNEAU         CLOUDY    71  65  83 SE7       29.88R
$$

LSZ147-162-271600-
LAKE SUPERIOR

STATION/POSITION TIME  TEMP    WIND        PRES    WAVE
                       AIR SEA DIR/SP/G            HT/PER
                 (UTC) (F)     (DEG/KT/KT) (MB)    (FT/S)
W MID LAKE BUOY  1450   39 38   50/  4/  4 1013.5R   0
DEVILS ISLAND    1500   43      70/ 10/ 11 1013.4R
SAXON HARBOR     1440   49     200/  2/  3 1012.5R
$$

LMZ867-665-643>646-271600-
LAKE MICHIGAN

STATION/POSITION TIME  TEMP    WIND        PRES    WAVE
                       AIR SEA DIR/SP/G            HT/PER
                 (UTC) (F)     (DEG/KT/KT) (MB)    (FT/S)
CHAMBERS ISLAND  1440   59     350/  3/  4 1012.9R
N MID LAKE BUOY  1450   48 47  340/  2/  2 1013.6R   1
NORTHPORT PIER   1420   53     130/  9/ 10 1012.9S
SISTER BAY       1305             CALM       N/A
ALGOMA LAKESHORE 1417             CALM       N/A
KEWAUNEE LAKESHO 1400   54      70/  1/  3 1011.7R
SHEBOYGAN LAKESH 1500   51     130/  6/  6 1012.5R
PORT WASHINGTON  1400   57     110/  3/  4 1012.9R
S MID LAKE BUOY  1450   55 50  160/ 12/ 12 1012.4R   1
KENOSHA   LAKESH 1500   59     180/ 13/ 15 1011.9F
$$

TC  - TEMPERATURE IN CELSIUS
VSB - VISIBILITY IN STATUTE MILES
WCI - WIND CHILL INDEX
HX  - HEAT INDEX





USA.gov is the U.S. government's official web portal to all federal, state and local government web resources and services.